Showing default

FLAMINGO-1, 67391

Orbit data source: Space-Track

FLAMINGO-1, 67391 is a German payload satellite in SSO that was launched on Sun, 11 Jan 2026 UTC via an FALCON 9 launch vehicle from the Air Force Western Test Range (AFWTR). Payload-class satellites include a variety of spacecraft equipped with specific instruments for various scientific and technological missions. These include communications satellites like Starlink; space stations such as the ISS; scientific satellites like the Hubble; Earth observation satellites from companies like Planet Labs, Umbra, and HawkEye 360; GPS; miniature CubeSats for education and research; and military/defense satellites.

Loading next visibility...
Identifier
67391, 2026-004AE
Orbit
SSO
Country
Flag of DEDE / GER
Related business
Manufacturer
Endurosat
Mission
Operational Commercial Technology
Bus & Motor
ESPASAT, Unknown motor
Mass
~100 kg wet, ~100 kg dry
Launch date (UTC)
2026-01-11 (4 months ago)
Launch vehicle
FALCON 9
Launch site
Air Force Western Test Range (AFWTR)
Object type
Payload
Rocket body
Debris
Shape & HBR
Box, 1.0 m
Radar Cross Section
0.475 m²

Expand to show TLE details & history
Last TLE update: 11 hours ago

TLE from 11 hours ago
0 FLAMINGO-1
1 67391U 26004AE  26146.26617698  .00001819  00000-0  93505-4 0  9997
2 67391  97.4546 145.5149 0006373  55.4874 304.6960 15.17725385 20424
Epoch: 2026-05-26T06:23Z
TLE epoch observation values (Epoch: 2026-05-26T06:23:17.691Z)
Latitude
-0.00007°
Longitude
165.84911°
Altitude
513.304 km
Speed
7.608 km/s
True Right ascension
09h 42m 03s
True Declination
0° 00' 00"
Sunlit
Object was in daylight at epoch
Visualization orbit readout
Latitude
Unknown
Longitude
Unknown
Altitude
Unknown
Speed
Unknown
Apparent Right ascension
Unknown
Apparent Declination
Unknown
Sunlit
N/A
Visualization observer readout
Local Sidereal Time
02:39:25
Azimuth
Unknown
Elevation
Unknown
Doppler factor
Unknown
Orbital elements
Apogee altitude
514.077 km
Perigee altitude
505.298 km
Semi-major axis
6,887.825 km
Eccentricity
0.00064
Inclination
97.4546°
RAAN
145.5149°
Arg. of periapsis
55.4874°
True anomaly
304.63593°
Mean anomaly
304.696°
Eccentric anomaly
304.66597°
Mean motion
3.79682 °/min
Orbital period
94.82 mins
BSTAR
0.000093505
Loading maneuver chart data...
Computing Atmospheric mass density...
Loading historical data...
Loading historical data...
Loading historical data...
Loading historical data...
Loading historical data...
Loading historical data...
Loading historical data...

Documentation

Showing up to 5 results
|